Location: *
(45.8589°N, 4.7139°E)
Time: 02:40:20
(UTC+00:00)

SPOT 3 Rocket - Pass Details

Date: 09 April 2020
Orbit: 779 x 795 km, 98.8° (Epoch: 29 May)

Event Time Altitude Azimuth Distance (km) Brightness Sun altitude
Exits shadow 19:22:45 - 151° (SSE) 2,560 5.7 -11.1°
Reaches altitude 10° 19:23:16 10° 150° (SSE) 2,355 5.5 -11.2°
Maximum altitude 19:28:23 62° 71° (ENE) 891 3.6 -12.0°
Drops below altitude 10° 19:33:31 10° 352° (N) 2,362 6.5 -12.8°
Sets 19:35:52 0° 349° (N) 3,293 7.3 -13.2°
